Year,Month,Day,Hour,Minute,Value (Times are PST for temperature in C)
2014,07,15,00,00,21.50
2014,07,15,00,01,21.50
2014,07,15,00,02,21.50
2014,07,15,00,03,21.50
2014,07,15,00,04,21.50
2014,07,15,00,05,21.50
2014,07,15,00,06,21.50
2014,07,15,00,07,21.50
2014,07,15,00,08,21.50
2014,07,15,00,09,21.60
2014,07,15,00,10,21.60
2014,07,15,00,11,21.60
2014,07,15,00,12,21.60
2014,07,15,00,13,21.60
2014,07,15,00,14,21.60
2014,07,15,00,15,21.60
2014,07,15,00,16,21.60
2014,07,15,00,17,21.60
2014,07,15,00,18,21.60
2014,07,15,00,19,21.50
2014,07,15,00,20,21.50
2014,07,15,00,21,21.40
2014,07,15,00,22,21.40
2014,07,15,00,23,21.40
2014,07,15,00,24,21.40
2014,07,15,00,25,21.30
2014,07,15,00,26,21.30
2014,07,15,00,27,21.30
2014,07,15,00,28,21.20
2014,07,15,00,29,21.20
2014,07,15,00,30,21.20
2014,07,15,00,31,21.10
2014,07,15,00,32,21.10
2014,07,15,00,33,21.10
2014,07,15,00,34,21.00
2014,07,15,00,35,21.00
2014,07,15,00,36,20.90
2014,07,15,00,37,20.90
2014,07,15,00,38,20.90
2014,07,15,00,39,20.90
2014,07,15,00,40,20.90
2014,07,15,00,41,20.90
2014,07,15,00,42,20.90
2014,07,15,00,43,20.90
2014,07,15,00,44,20.80
2014,07,15,00,45,20.80
2014,07,15,00,46,20.80
2014,07,15,00,47,20.80
2014,07,15,00,48,20.80
2014,07,15,00,49,20.80
2014,07,15,00,50,20.70
2014,07,15,00,51,20.70
2014,07,15,00,52,20.70
2014,07,15,00,53,20.60
2014,07,15,00,54,20.60
2014,07,15,00,55,20.60
2014,07,15,00,56,20.50
2014,07,15,00,57,20.50
2014,07,15,00,58,20.50
2014,07,15,00,59,20.50
2014,07,15,01,00,20.50
2014,07,15,01,01,20.50
2014,07,15,01,02,20.50
2014,07,15,01,03,20.50
2014,07,15,01,04,20.40
2014,07,15,01,05,20.40
2014,07,15,01,06,20.30
2014,07,15,01,07,20.30
2014,07,15,01,08,20.30
2014,07,15,01,09,20.30
2014,07,15,01,10,20.20
2014,07,15,01,11,20.20
2014,07,15,01,12,20.20
2014,07,15,01,13,20.10
2014,07,15,01,14,20.10
2014,07,15,01,15,20.10
2014,07,15,01,16,20.10
2014,07,15,01,17,20.10
2014,07,15,01,18,20.00
2014,07,15,01,19,20.00
2014,07,15,01,20,19.90
2014,07,15,01,21,19.90
2014,07,15,01,22,19.90
2014,07,15,01,23,19.80
2014,07,15,01,24,19.80
2014,07,15,01,25,19.80
2014,07,15,01,26,19.80
2014,07,15,01,27,19.80
2014,07,15,01,28,19.80
2014,07,15,01,29,19.80
2014,07,15,01,30,19.80
2014,07,15,01,31,19.80
2014,07,15,01,32,19.80
2014,07,15,01,33,19.80
2014,07,15,01,34,19.80
2014,07,15,01,35,19.80
2014,07,15,01,36,19.80
2014,07,15,01,37,19.80
2014,07,15,01,38,19.70
2014,07,15,01,39,19.70
2014,07,15,01,40,19.70
2014,07,15,01,41,19.60
2014,07,15,01,42,19.60
2014,07,15,01,43,19.50
2014,07,15,01,44,19.40
2014,07,15,01,45,19.30
2014,07,15,01,46,19.30
2014,07,15,01,47,19.30
2014,07,15,01,48,19.30
2014,07,15,01,49,19.30
2014,07,15,01,50,19.30
2014,07,15,01,51,19.30
2014,07,15,01,52,19.30
2014,07,15,01,53,19.20
2014,07,15,01,54,19.20
2014,07,15,01,55,19.20
2014,07,15,01,56,19.10
2014,07,15,01,57,19.10
2014,07,15,01,58,19.00
2014,07,15,01,59,19.00
2014,07,15,02,00,19.00
2014,07,15,02,01,18.90
2014,07,15,02,02,18.90
2014,07,15,02,03,18.90
2014,07,15,02,04,18.90
2014,07,15,02,05,18.90
2014,07,15,02,06,18.90
2014,07,15,02,07,18.90
2014,07,15,02,08,18.90
2014,07,15,02,09,18.90
2014,07,15,02,10,18.90
2014,07,15,02,11,18.90
2014,07,15,02,12,18.90
2014,07,15,02,13,18.90
2014,07,15,02,14,18.90
2014,07,15,02,15,18.90
2014,07,15,02,16,18.90
2014,07,15,02,17,18.90
2014,07,15,02,18,18.80
2014,07,15,02,19,18.80
2014,07,15,02,20,18.80
2014,07,15,02,21,18.80
2014,07,15,02,22,18.80
2014,07,15,02,23,18.80
2014,07,15,02,24,18.70
2014,07,15,02,25,18.70
2014,07,15,02,26,18.70
2014,07,15,02,27,18.70
2014,07,15,02,28,18.70
2014,07,15,02,29,18.70
2014,07,15,02,30,18.60
2014,07,15,02,31,18.60
2014,07,15,02,32,18.50
2014,07,15,02,33,18.50
2014,07,15,02,34,18.40
2014,07,15,02,35,18.40
2014,07,15,02,36,18.40
2014,07,15,02,37,18.30
2014,07,15,02,38,18.30
2014,07,15,02,39,18.30
2014,07,15,02,40,18.20
2014,07,15,02,41,18.20
2014,07,15,02,42,18.20
2014,07,15,02,43,18.20
2014,07,15,02,44,18.20
2014,07,15,02,45,18.20
2014,07,15,02,46,18.10
2014,07,15,02,47,18.10
2014,07,15,02,48,18.10
2014,07,15,02,49,18.00
2014,07,15,02,50,18.00
2014,07,15,02,51,17.90
2014,07,15,02,52,17.90
2014,07,15,02,53,17.90
2014,07,15,02,54,17.80
2014,07,15,02,55,17.80
2014,07,15,02,56,17.80
2014,07,15,02,57,17.80
2014,07,15,02,58,17.80
2014,07,15,02,59,17.80
2014,07,15,03,00,17.80
2014,07,15,03,01,17.80
2014,07,15,03,02,17.80
2014,07,15,03,03,17.80
2014,07,15,03,04,17.80
2014,07,15,03,05,17.70
2014,07,15,03,06,17.70
2014,07,15,03,07,17.60
2014,07,15,03,08,17.60
2014,07,15,03,09,17.60
2014,07,15,03,10,17.50
2014,07,15,03,11,17.50
2014,07,15,03,12,17.50
2014,07,15,03,13,17.50
2014,07,15,03,14,17.50
2014,07,15,03,15,17.50
2014,07,15,03,16,17.50
2014,07,15,03,17,17.50
2014,07,15,03,18,17.50
2014,07,15,03,19,17.50
2014,07,15,03,20,17.60
2014,07,15,03,21,17.60
2014,07,15,03,22,17.60
2014,07,15,03,23,17.60
2014,07,15,03,24,17.60
2014,07,15,03,25,17.60
2014,07,15,03,26,17.60
2014,07,15,03,27,17.60
2014,07,15,03,28,17.60
2014,07,15,03,29,17.50
2014,07,15,03,30,17.50
2014,07,15,03,31,17.50
2014,07,15,03,32,17.50
2014,07,15,03,33,17.50
2014,07,15,03,34,17.50
2014,07,15,03,35,17.40
2014,07,15,03,36,17.40
2014,07,15,03,37,17.40
2014,07,15,03,38,17.40
2014,07,15,03,39,17.30
2014,07,15,03,40,17.30
2014,07,15,03,41,17.30
2014,07,15,03,42,17.30
2014,07,15,03,43,17.30
2014,07,15,03,44,17.30
2014,07,15,03,45,17.30
2014,07,15,03,46,17.20
2014,07,15,03,47,17.20
2014,07,15,03,48,17.20
2014,07,15,03,49,17.20
2014,07,15,03,50,17.20
2014,07,15,03,51,17.20
2014,07,15,03,52,17.20
2014,07,15,03,53,17.20
2014,07,15,03,54,17.20
2014,07,15,03,55,17.20
2014,07,15,03,56,17.20
2014,07,15,03,57,17.30
2014,07,15,03,58,17.30
2014,07,15,03,59,17.30
2014,07,15,04,00,17.30
2014,07,15,04,01,17.30
2014,07,15,04,02,17.30
2014,07,15,04,03,17.30
2014,07,15,04,04,17.30
2014,07,15,04,05,17.30
2014,07,15,04,06,17.30
2014,07,15,04,07,17.30
2014,07,15,04,08,17.20
2014,07,15,04,09,17.20
2014,07,15,04,10,17.20
2014,07,15,04,11,17.10
2014,07,15,04,12,17.10
2014,07,15,04,13,17.10
2014,07,15,04,14,17.00
2014,07,15,04,15,17.10
2014,07,15,04,16,17.10
2014,07,15,04,17,17.00
2014,07,15,04,18,17.00
2014,07,15,04,19,17.00
2014,07,15,04,20,17.00
2014,07,15,04,21,16.90
2014,07,15,04,22,16.90
2014,07,15,04,23,16.80
2014,07,15,04,24,16.80
2014,07,15,04,25,16.80
2014,07,15,04,26,16.80
2014,07,15,04,27,16.80
2014,07,15,04,28,16.80
2014,07,15,04,29,16.80
2014,07,15,04,30,16.80
2014,07,15,04,31,16.80
2014,07,15,04,32,16.80
2014,07,15,04,33,16.70
2014,07,15,04,34,16.60
2014,07,15,04,35,16.60
2014,07,15,04,36,16.50
2014,07,15,04,37,16.40
2014,07,15,04,38,16.40
2014,07,15,04,39,16.40
2014,07,15,04,40,16.40
2014,07,15,04,41,16.40
2014,07,15,04,42,16.40
2014,07,15,04,43,16.30
2014,07,15,04,44,16.30
2014,07,15,04,45,16.30
2014,07,15,04,46,16.30
2014,07,15,04,47,16.30
2014,07,15,04,48,16.30
2014,07,15,04,49,16.30
2014,07,15,04,50,16.30
2014,07,15,04,51,16.30
2014,07,15,04,52,16.30
2014,07,15,04,53,16.40
2014,07,15,04,54,16.40
2014,07,15,04,55,16.40
2014,07,15,04,56,16.30
2014,07,15,04,57,16.30
2014,07,15,04,58,16.30
2014,07,15,04,59,16.30
2014,07,15,05,00,16.30
2014,07,15,05,01,16.30
2014,07,15,05,02,16.30
2014,07,15,05,03,16.30
2014,07,15,05,04,16.30
2014,07,15,05,05,16.30
2014,07,15,05,06,16.20
2014,07,15,05,07,16.20
2014,07,15,05,08,16.20
2014,07,15,05,09,16.20
2014,07,15,05,10,16.20
2014,07,15,05,11,16.20
2014,07,15,05,12,16.20
2014,07,15,05,13,16.20
2014,07,15,05,14,16.20
2014,07,15,05,15,16.10
2014,07,15,05,16,16.10
2014,07,15,05,17,16.10
2014,07,15,05,18,16.10
2014,07,15,05,19,16.10
2014,07,15,05,20,16.10
2014,07,15,05,21,16.10
2014,07,15,05,22,16.10
2014,07,15,05,23,16.10
2014,07,15,05,24,16.20
2014,07,15,05,25,16.20
2014,07,15,05,26,16.20
2014,07,15,05,27,16.20
2014,07,15,05,28,16.20
2014,07,15,05,29,16.20
2014,07,15,05,30,16.20
2014,07,15,05,31,16.20
2014,07,15,05,32,16.20
2014,07,15,05,33,16.20
2014,07,15,05,34,16.20
2014,07,15,05,35,16.20
2014,07,15,05,36,16.20
2014,07,15,05,37,16.20
2014,07,15,05,38,16.20
2014,07,15,05,39,16.20
2014,07,15,05,40,16.20
2014,07,15,05,41,16.20
2014,07,15,05,42,16.20
2014,07,15,05,43,16.10
2014,07,15,05,44,16.10
2014,07,15,05,45,16.10
2014,07,15,05,46,16.10
2014,07,15,05,47,16.10
2014,07,15,05,48,16.10
2014,07,15,05,49,16.00
2014,07,15,05,50,16.00
2014,07,15,05,51,16.00
2014,07,15,05,52,16.00
2014,07,15,05,53,15.90
2014,07,15,05,54,15.90
2014,07,15,05,55,15.90
2014,07,15,05,56,15.90
2014,07,15,05,57,15.90
2014,07,15,05,58,15.90
2014,07,15,05,59,15.90
2014,07,15,06,00,15.90
2014,07,15,06,01,15.80
2014,07,15,06,02,15.80
2014,07,15,06,03,15.80
2014,07,15,06,04,15.80
2014,07,15,06,05,15.80
2014,07,15,06,06,15.80
2014,07,15,06,07,15.80
2014,07,15,06,08,15.80
2014,07,15,06,09,15.80
2014,07,15,06,10,15.80
2014,07,15,06,11,15.80
2014,07,15,06,12,15.80
2014,07,15,06,13,15.80
2014,07,15,06,14,15.80
2014,07,15,06,15,15.80
2014,07,15,06,16,15.80
2014,07,15,06,17,15.80
2014,07,15,06,18,15.80
2014,07,15,06,19,15.80
2014,07,15,06,20,15.80
2014,07,15,06,21,15.90
2014,07,15,06,22,15.90
2014,07,15,06,23,15.90
2014,07,15,06,24,15.90
2014,07,15,06,25,15.90
2014,07,15,06,26,15.90
2014,07,15,06,27,15.90
2014,07,15,06,28,15.90
2014,07,15,06,29,15.90
2014,07,15,06,30,16.00
2014,07,15,06,31,16.00
2014,07,15,06,32,16.00
2014,07,15,06,33,16.00
2014,07,15,06,34,16.00
2014,07,15,06,35,16.00
2014,07,15,06,36,16.10
2014,07,15,06,37,16.10
2014,07,15,06,38,16.10
2014,07,15,06,39,16.10
2014,07,15,06,40,16.10
2014,07,15,06,41,16.10
2014,07,15,06,42,16.10
2014,07,15,06,43,16.10
2014,07,15,06,44,16.10
2014,07,15,06,45,16.20
2014,07,15,06,46,16.20
2014,07,15,06,47,16.20
2014,07,15,06,48,16.20
2014,07,15,06,49,16.20
2014,07,15,06,50,16.20
2014,07,15,06,51,16.20
2014,07,15,06,52,16.20
2014,07,15,06,53,16.30
2014,07,15,06,54,16.30
2014,07,15,06,55,16.30
2014,07,15,06,56,16.40
2014,07,15,06,57,16.40
2014,07,15,06,58,16.40
2014,07,15,06,59,16.50
2014,07,15,07,00,16.50
2014,07,15,07,01,16.60
2014,07,15,07,02,16.60
2014,07,15,07,03,16.60
2014,07,15,07,04,16.60
2014,07,15,07,05,16.70
2014,07,15,07,06,16.70
2014,07,15,07,07,16.70
2014,07,15,07,08,16.70
2014,07,15,07,09,16.80
2014,07,15,07,10,16.90
2014,07,15,07,11,17.00
2014,07,15,07,12,17.10
2014,07,15,07,13,17.20
2014,07,15,07,14,17.20
2014,07,15,07,15,17.30
2014,07,15,07,16,17.40
2014,07,15,07,17,17.40
2014,07,15,07,18,17.50
2014,07,15,07,19,17.60
2014,07,15,07,20,17.60
2014,07,15,07,21,17.70
2014,07,15,07,22,17.70
2014,07,15,07,23,17.70
2014,07,15,07,24,17.70
2014,07,15,07,25,17.70
2014,07,15,07,26,17.80
2014,07,15,07,27,17.90
2014,07,15,07,28,18.00
2014,07,15,07,29,18.00
2014,07,15,07,30,18.10
2014,07,15,07,31,18.10
2014,07,15,07,32,18.00
2014,07,15,07,33,18.10
2014,07,15,07,34,18.10
2014,07,15,07,35,18.10
2014,07,15,07,36,18.10
2014,07,15,07,37,18.20
2014,07,15,07,38,18.30
2014,07,15,07,39,18.30
2014,07,15,07,40,18.30
2014,07,15,07,41,18.40
2014,07,15,07,42,18.50
2014,07,15,07,43,18.50
2014,07,15,07,44,18.60
2014,07,15,07,45,18.60
2014,07,15,07,46,18.60
2014,07,15,07,47,18.60
2014,07,15,07,48,18.50
2014,07,15,07,49,18.50
2014,07,15,07,50,18.50
2014,07,15,07,51,18.50
2014,07,15,07,52,18.50
2014,07,15,07,53,18.60
2014,07,15,07,54,18.60
2014,07,15,07,55,18.70
2014,07,15,07,56,18.80
2014,07,15,07,57,18.80
2014,07,15,07,58,18.80
2014,07,15,07,59,18.80
2014,07,15,08,00,18.90
2014,07,15,08,01,18.90
2014,07,15,08,02,18.90
2014,07,15,08,03,18.90
2014,07,15,08,04,18.90
2014,07,15,08,05,19.00
2014,07,15,08,06,19.00
2014,07,15,08,07,19.00
2014,07,15,08,08,19.10
2014,07,15,08,09,19.10
2014,07,15,08,10,19.10
2014,07,15,08,11,19.10
2014,07,15,08,12,19.10
2014,07,15,08,13,19.10
2014,07,15,08,14,19.20
2014,07,15,08,15,19.20
2014,07,15,08,16,19.30
2014,07,15,08,17,19.30
2014,07,15,08,18,19.30
2014,07,15,08,19,19.30
2014,07,15,08,20,19.30
2014,07,15,08,21,19.30
2014,07,15,08,22,19.30
2014,07,15,08,23,19.30
2014,07,15,08,24,19.30
2014,07,15,08,25,19.20
2014,07,15,08,26,19.20
2014,07,15,08,27,19.20
2014,07,15,08,28,19.20
2014,07,15,08,29,19.20
2014,07,15,08,30,19.20
2014,07,15,08,31,19.20
2014,07,15,08,32,19.10
2014,07,15,08,33,19.10
2014,07,15,08,34,19.10
2014,07,15,08,35,19.10
2014,07,15,08,36,19.10
2014,07,15,08,37,19.20
2014,07,15,08,38,19.20
2014,07,15,08,39,19.20
2014,07,15,08,40,19.20
2014,07,15,08,41,19.20
2014,07,15,08,42,19.20
2014,07,15,08,43,19.20
2014,07,15,08,44,19.20
2014,07,15,08,45,19.20
2014,07,15,08,46,19.20
2014,07,15,08,47,19.20
2014,07,15,08,48,19.20
2014,07,15,08,49,19.20
2014,07,15,08,50,19.20
2014,07,15,08,51,19.20
2014,07,15,08,52,19.20
2014,07,15,08,53,19.20
2014,07,15,08,54,19.20
2014,07,15,08,55,19.20
2014,07,15,08,56,19.20
2014,07,15,08,57,19.10
2014,07,15,08,58,19.10
2014,07,15,08,59,19.00
2014,07,15,09,00,19.10
2014,07,15,09,01,19.20
2014,07,15,09,02,19.20
2014,07,15,09,03,19.20
2014,07,15,09,04,19.20
2014,07,15,09,05,19.20
2014,07,15,09,06,19.20
2014,07,15,09,07,19.20
2014,07,15,09,08,19.20
2014,07,15,09,09,19.30
2014,07,15,09,10,19.40
2014,07,15,09,11,19.60
2014,07,15,09,12,19.70
2014,07,15,09,13,19.80
2014,07,15,09,14,19.80
2014,07,15,09,15,19.90
2014,07,15,09,16,20.00
2014,07,15,09,17,20.00
2014,07,15,09,18,20.10
2014,07,15,09,19,20.20
2014,07,15,09,20,20.20
2014,07,15,09,21,20.20
2014,07,15,09,22,20.20
2014,07,15,09,23,20.30
2014,07,15,09,24,20.30
2014,07,15,09,25,20.40
2014,07,15,09,26,20.50
2014,07,15,09,27,20.60
2014,07,15,09,28,20.70
2014,07,15,09,29,20.80
2014,07,15,09,30,20.90
2014,07,15,09,31,20.90
2014,07,15,09,32,20.90
2014,07,15,09,33,20.80
2014,07,15,09,34,20.80
2014,07,15,09,35,20.70
2014,07,15,09,36,20.70
2014,07,15,09,37,20.70
2014,07,15,09,38,20.80
2014,07,15,09,39,20.90
2014,07,15,09,40,21.00
2014,07,15,09,41,20.90
2014,07,15,09,42,20.90
2014,07,15,09,43,20.80
2014,07,15,09,44,20.80
2014,07,15,09,45,20.80
2014,07,15,09,46,20.70
2014,07,15,09,47,20.70
2014,07,15,09,48,20.70
2014,07,15,09,49,20.70
2014,07,15,09,50,20.70
2014,07,15,09,51,20.70
2014,07,15,09,52,20.80
2014,07,15,09,53,20.80
2014,07,15,09,54,20.90
2014,07,15,09,55,21.00
2014,07,15,09,56,21.10
2014,07,15,09,57,21.20
2014,07,15,09,58,21.30
2014,07,15,09,59,21.40
2014,07,15,10,00,21.40
2014,07,15,10,01,21.40
2014,07,15,10,02,21.30
2014,07,15,10,03,21.30
2014,07,15,10,04,21.20
2014,07,15,10,05,21.10
2014,07,15,10,06,21.10
2014,07,15,10,07,21.20
2014,07,15,10,08,21.20
2014,07,15,10,09,21.30
2014,07,15,10,10,21.40
2014,07,15,10,11,21.50
2014,07,15,10,12,21.40
2014,07,15,10,13,21.40
2014,07,15,10,14,21.40
2014,07,15,10,15,21.50
2014,07,15,10,16,21.50
2014,07,15,10,17,21.60
2014,07,15,10,18,21.70
2014,07,15,10,19,21.80
2014,07,15,10,20,21.80
2014,07,15,10,21,21.80
2014,07,15,10,22,21.80
2014,07,15,10,23,21.70
2014,07,15,10,24,21.60
2014,07,15,10,25,21.60
2014,07,15,10,26,21.60
2014,07,15,10,27,21.60
2014,07,15,10,28,21.60
2014,07,15,10,29,21.60
2014,07,15,10,30,21.60
2014,07,15,10,31,21.60
2014,07,15,10,32,21.70
2014,07,15,10,33,21.70
2014,07,15,10,34,21.60
2014,07,15,10,35,21.50
2014,07,15,10,36,21.30
2014,07,15,10,37,21.20
2014,07,15,10,38,21.10
2014,07,15,10,39,21.10
2014,07,15,10,40,21.10
2014,07,15,10,41,21.20
2014,07,15,10,42,21.30
2014,07,15,10,43,21.40
2014,07,15,10,44,21.40
2014,07,15,10,45,21.40
2014,07,15,10,46,21.40
2014,07,15,10,47,21.40
2014,07,15,10,48,21.50
2014,07,15,10,49,21.60
2014,07,15,10,50,21.60
2014,07,15,10,51,21.70
2014,07,15,10,52,21.80
2014,07,15,10,53,21.90
2014,07,15,10,54,21.90
2014,07,15,10,55,21.90
2014,07,15,10,56,22.00
2014,07,15,10,57,22.00
2014,07,15,10,58,22.00
2014,07,15,10,59,22.10
2014,07,15,11,00,22.00
2014,07,15,11,01,22.00
2014,07,15,11,02,22.00
2014,07,15,11,03,22.00
2014,07,15,11,04,22.00
2014,07,15,11,05,22.10
2014,07,15,11,06,22.10
2014,07,15,11,07,22.00
2014,07,15,11,08,22.00
2014,07,15,11,09,22.10
2014,07,15,11,10,22.30
2014,07,15,11,11,22.30
2014,07,15,11,12,22.30
2014,07,15,11,13,22.30
2014,07,15,11,14,22.20
2014,07,15,11,15,22.20
2014,07,15,11,16,22.20
2014,07,15,11,17,22.10
2014,07,15,11,18,22.00
2014,07,15,11,19,21.90
2014,07,15,11,20,21.90
2014,07,15,11,21,21.90
2014,07,15,11,22,22.00
2014,07,15,11,23,22.00
2014,07,15,11,24,22.10
2014,07,15,11,25,22.10
2014,07,15,11,26,22.20
2014,07,15,11,27,22.30
2014,07,15,11,28,22.30
2014,07,15,11,29,22.30
2014,07,15,11,30,22.40
2014,07,15,11,31,22.40
2014,07,15,11,32,22.50
2014,07,15,11,33,22.50
2014,07,15,11,34,22.40
2014,07,15,11,35,22.30
2014,07,15,11,36,22.30
2014,07,15,11,37,22.30
2014,07,15,11,38,22.50
2014,07,15,11,39,22.50
2014,07,15,11,40,22.60
2014,07,15,11,41,22.60
2014,07,15,11,42,22.70
2014,07,15,11,43,22.70
2014,07,15,11,44,22.70
2014,07,15,11,45,22.80
2014,07,15,11,46,22.80
2014,07,15,11,47,22.80
2014,07,15,11,48,22.80
2014,07,15,11,49,22.80
2014,07,15,11,50,22.80
2014,07,15,11,51,22.90
2014,07,15,11,52,23.00
2014,07,15,11,53,23.10
2014,07,15,11,54,23.10
2014,07,15,11,55,23.20
2014,07,15,11,56,23.20
2014,07,15,11,57,23.10
2014,07,15,11,58,23.10
2014,07,15,11,59,23.10
2014,07,15,12,00,23.00
2014,07,15,12,01,22.90
2014,07,15,12,02,22.90
2014,07,15,12,03,22.80
2014,07,15,12,04,22.80
2014,07,15,12,05,22.70
2014,07,15,12,06,22.70
2014,07,15,12,07,22.70
2014,07,15,12,08,22.70
2014,07,15,12,09,22.80
2014,07,15,12,10,22.80
2014,07,15,12,11,22.90
2014,07,15,12,12,23.00
2014,07,15,12,13,23.10
2014,07,15,12,14,23.20
2014,07,15,12,15,23.30
2014,07,15,12,16,23.40
2014,07,15,12,17,23.40
2014,07,15,12,18,23.40
2014,07,15,12,19,23.40
2014,07,15,12,20,23.40
2014,07,15,12,21,23.40
2014,07,15,12,22,23.30
2014,07,15,12,23,23.20
2014,07,15,12,24,23.20
2014,07,15,12,25,23.10
2014,07,15,12,26,23.10
2014,07,15,12,27,23.00
2014,07,15,12,28,23.00
2014,07,15,12,29,23.00
2014,07,15,12,30,23.00
2014,07,15,12,31,23.10
2014,07,15,12,32,23.10
2014,07,15,12,33,23.20
2014,07,15,12,34,23.30
2014,07,15,12,35,23.40
2014,07,15,12,36,23.50
2014,07,15,12,37,23.60
2014,07,15,12,38,23.70
2014,07,15,12,39,23.80
2014,07,15,12,40,23.80
2014,07,15,12,41,23.70
2014,07,15,12,42,23.60
2014,07,15,12,43,23.60
2014,07,15,12,44,23.60
2014,07,15,12,45,23.60
2014,07,15,12,46,23.70
2014,07,15,12,47,23.70
2014,07,15,12,48,23.80
2014,07,15,12,49,23.80
2014,07,15,12,50,23.90
2014,07,15,12,51,23.90
2014,07,15,12,52,24.00
2014,07,15,12,53,24.10
2014,07,15,12,54,24.10
2014,07,15,12,55,24.20
2014,07,15,12,56,24.30
2014,07,15,12,57,24.30
2014,07,15,12,58,24.40
2014,07,15,12,59,24.50
2014,07,15,13,00,24.60
2014,07,15,13,01,24.60
2014,07,15,13,02,24.60
2014,07,15,13,03,24.60
2014,07,15,13,04,24.60
2014,07,15,13,05,24.60
2014,07,15,13,06,24.60
2014,07,15,13,07,24.70
2014,07,15,13,08,24.80
2014,07,15,13,09,24.80
2014,07,15,13,10,24.90
2014,07,15,13,11,24.90
2014,07,15,13,12,25.00
2014,07,15,13,13,25.10
2014,07,15,13,14,25.10
2014,07,15,13,15,25.20
2014,07,15,13,16,25.30
2014,07,15,13,17,25.20
2014,07,15,13,18,25.10
2014,07,15,13,19,25.10
2014,07,15,13,20,25.10
2014,07,15,13,21,25.10
2014,07,15,13,22,25.20
2014,07,15,13,23,25.30
2014,07,15,13,24,25.30
2014,07,15,13,25,25.20
2014,07,15,13,26,25.20
2014,07,15,13,27,25.20
2014,07,15,13,28,25.10
2014,07,15,13,29,25.00
2014,07,15,13,30,24.90
2014,07,15,13,31,24.90
2014,07,15,13,32,24.90
2014,07,15,13,33,24.90
2014,07,15,13,34,24.90
2014,07,15,13,35,24.90
2014,07,15,13,36,25.00
2014,07,15,13,37,25.10
2014,07,15,13,38,25.10
2014,07,15,13,39,25.30
2014,07,15,13,40,25.40
2014,07,15,13,41,25.60
2014,07,15,13,42,25.70
2014,07,15,13,43,25.70
2014,07,15,13,44,25.70
2014,07,15,13,45,25.70
2014,07,15,13,46,25.70
2014,07,15,13,47,25.80
2014,07,15,13,48,25.90
2014,07,15,13,49,25.90
2014,07,15,13,50,25.90
2014,07,15,13,51,25.90
2014,07,15,13,52,25.90
2014,07,15,13,53,25.90
2014,07,15,13,54,25.90
2014,07,15,13,55,25.90
2014,07,15,13,56,25.90
2014,07,15,13,57,25.90
2014,07,15,13,58,26.00
2014,07,15,13,59,26.10
2014,07,15,14,00,26.20
2014,07,15,14,01,26.30
2014,07,15,14,02,26.30
2014,07,15,14,03,26.20
2014,07,15,14,04,26.20
2014,07,15,14,05,26.20
2014,07,15,14,06,26.30
2014,07,15,14,07,26.40
2014,07,15,14,08,26.40
2014,07,15,14,09,26.40
2014,07,15,14,10,26.30
2014,07,15,14,11,26.40
2014,07,15,14,12,26.40
2014,07,15,14,13,26.40
2014,07,15,14,14,26.50
2014,07,15,14,15,26.60
2014,07,15,14,16,26.70
2014,07,15,14,17,26.80
2014,07,15,14,18,26.90
2014,07,15,14,19,27.00
2014,07,15,14,20,27.10
2014,07,15,14,21,27.20
2014,07,15,14,22,27.30
2014,07,15,14,23,27.40
2014,07,15,14,24,27.40
2014,07,15,14,25,27.40
2014,07,15,14,26,27.40
2014,07,15,14,27,27.40
2014,07,15,14,28,27.30
2014,07,15,14,29,27.30
2014,07,15,14,30,27.30
2014,07,15,14,31,27.30
2014,07,15,14,32,27.30
2014,07,15,14,33,27.30
2014,07,15,14,34,27.30
2014,07,15,14,35,27.30
2014,07,15,14,36,27.30
2014,07,15,14,37,27.30
2014,07,15,14,38,27.30
2014,07,15,14,39,27.30
2014,07,15,14,40,27.30
2014,07,15,14,41,27.40
2014,07,15,14,42,27.50
2014,07,15,14,43,27.50
2014,07,15,14,44,27.60
2014,07,15,14,45,27.60
2014,07,15,14,46,27.60
2014,07,15,14,47,27.60
2014,07,15,14,48,27.60
2014,07,15,14,49,27.60
2014,07,15,14,50,27.60
2014,07,15,14,51,27.60
2014,07,15,14,52,27.60
2014,07,15,14,53,27.60
2014,07,15,14,54,27.60
2014,07,15,14,55,27.70
2014,07,15,14,56,27.80
2014,07,15,14,57,27.80
2014,07,15,14,58,27.90
2014,07,15,14,59,28.10
2014,07,15,15,00,28.30
2014,07,15,15,01,28.40
2014,07,15,15,02,28.60
2014,07,15,15,03,28.70
2014,07,15,15,04,28.70
2014,07,15,15,05,28.70
2014,07,15,15,06,28.70
2014,07,15,15,07,28.60
2014,07,15,15,08,28.60
2014,07,15,15,09,28.60
2014,07,15,15,10,28.70
2014,07,15,15,11,28.80
2014,07,15,15,12,28.90
2014,07,15,15,13,28.90
2014,07,15,15,14,29.00
2014,07,15,15,15,29.00
2014,07,15,15,16,28.90
2014,07,15,15,17,28.80
2014,07,15,15,18,28.70
2014,07,15,15,19,28.50
2014,07,15,15,20,28.40
2014,07,15,15,21,28.30
2014,07,15,15,22,28.20
2014,07,15,15,23,28.20
2014,07,15,15,24,28.20
2014,07,15,15,25,28.30
2014,07,15,15,26,28.30
2014,07,15,15,27,28.30
2014,07,15,15,28,28.30
2014,07,15,15,29,28.20
2014,07,15,15,30,28.20
2014,07,15,15,31,28.20
2014,07,15,15,32,28.20
2014,07,15,15,33,28.30
2014,07,15,15,34,28.50
2014,07,15,15,35,28.70
2014,07,15,15,36,28.80
2014,07,15,15,37,28.90
2014,07,15,15,38,29.10
2014,07,15,15,39,29.20
2014,07,15,15,40,29.30
2014,07,15,15,41,29.30
2014,07,15,15,42,29.30
2014,07,15,15,43,29.30
2014,07,15,15,44,29.40
2014,07,15,15,45,29.50
2014,07,15,15,46,29.60
2014,07,15,15,47,29.70
2014,07,15,15,48,29.70
2014,07,15,15,49,29.70
2014,07,15,15,50,29.70
2014,07,15,15,51,29.80
2014,07,15,15,52,29.80
2014,07,15,15,53,29.70
2014,07,15,15,54,29.70
2014,07,15,15,55,29.70
2014,07,15,15,56,29.80
2014,07,15,15,57,29.70
2014,07,15,15,58,29.60
2014,07,15,15,59,29.50
2014,07,15,16,00,29.50
2014,07,15,16,01,29.40
2014,07,15,16,02,29.50
2014,07,15,16,03,29.60
2014,07,15,16,04,29.70
2014,07,15,16,05,29.70
2014,07,15,16,06,29.60
2014,07,15,16,07,29.70
2014,07,15,16,08,29.80
2014,07,15,16,09,29.80
2014,07,15,16,10,29.70
2014,07,15,16,11,29.70
2014,07,15,16,12,29.60
2014,07,15,16,13,29.60
2014,07,15,16,14,29.60
2014,07,15,16,15,29.60
2014,07,15,16,16,29.60
2014,07,15,16,17,29.60
2014,07,15,16,18,29.60
2014,07,15,16,19,29.70
2014,07,15,16,20,29.80
2014,07,15,16,21,29.90
2014,07,15,16,22,30.00
2014,07,15,16,23,30.10
2014,07,15,16,24,30.20
2014,07,15,16,25,30.30
2014,07,15,16,26,30.30
2014,07,15,16,27,30.30
2014,07,15,16,28,30.40
2014,07,15,16,29,30.40
2014,07,15,16,30,30.50
2014,07,15,16,31,30.50
2014,07,15,16,32,30.60
2014,07,15,16,33,30.60
2014,07,15,16,34,30.60
2014,07,15,16,35,30.50
2014,07,15,16,36,30.50
2014,07,15,16,37,30.50
2014,07,15,16,38,30.50
2014,07,15,16,39,30.50
2014,07,15,16,40,30.40
2014,07,15,16,41,30.40
2014,07,15,16,42,30.40
2014,07,15,16,43,30.40
2014,07,15,16,44,30.40
2014,07,15,16,45,30.30
2014,07,15,16,46,30.20
2014,07,15,16,47,30.10
2014,07,15,16,48,30.10
2014,07,15,16,49,30.10
2014,07,15,16,50,30.10
2014,07,15,16,51,30.10
2014,07,15,16,52,30.10
2014,07,15,16,53,30.10
2014,07,15,16,54,30.10
2014,07,15,16,55,30.20
2014,07,15,16,56,30.20
2014,07,15,16,57,30.30
2014,07,15,16,58,30.30
2014,07,15,16,59,30.30
2014,07,15,17,00,30.30
2014,07,15,17,01,30.30
2014,07,15,17,02,30.30
2014,07,15,17,03,30.40
2014,07,15,17,04,30.30
2014,07,15,17,05,30.30
2014,07,15,17,06,30.30
2014,07,15,17,07,30.30
2014,07,15,17,08,30.30
2014,07,15,17,09,30.30
2014,07,15,17,10,30.20
2014,07,15,17,11,30.10
2014,07,15,17,12,30.10
2014,07,15,17,13,30.00
2014,07,15,17,14,30.00
2014,07,15,17,15,29.90
2014,07,15,17,16,29.80
2014,07,15,17,17,29.70
2014,07,15,17,18,29.60
2014,07,15,17,19,29.50